Find Iridium 22

NORAD ID: 24907 Int'l Des: 1997-043 Owner: IRID Country: US Constellation: iridium operational
LEOCIRCULARPOLAR

Current View

Loading 3D Globe...

About Iridium 22

Description loading...

Upcoming Passes

Passes for default location (London). Set your location on the main map for personalized predictions.

Altitude History

Loading altitude history...

Two-Line Element Set

1 24907U 97043E 26146.20525169 .00000317 00000-0 10199-3 0 9998
2 24907 86.3950 330.2894 0002119 85.9773 274.1666 14.36241246506002
Epoch: May 26, 2026 • Age: 7 hours

Current Status

Altitude 778.8 km
Velocity 7.46 km/s
Sub-Earth Point -19.30°S, 88.01°W
Launch Date Aug 21, 1997
Age 28.7 years
Type communications

Technical Details

Classification Payload
Mass 662.00 kg
Dry Mass 556.00 kg
Total Mass 662.00 kg
Length 3.50 m
Diameter 1.00 m
Span 5.00 m
Shape Box + 2 Pan
Manufacturer MOTO/LMMS
Bus Type LM700
Phase Status In Orbit
Owner/State IRID/US

Most Searched